Time,TemperatureF,DewpointF,PressureIn,WindDirection,WindDirectionDegrees,WindSpeedMPH,WindSpeedGustMPH,Humidity,HourlyPrecipIn,Conditions,Clouds,dailyrainin,SoftwareType,DateUTC
2013-04-04 11:33:00,52.0,47.0,29.70,NW,319,0.0,0.0,83,0.00,,---,0.00,VWS V14.01,2013-04-04 18:33:00,
2013-04-04 11:34:00,52.0,47.0,29.70,NW,319,0.0,0.0,83,0.11,,---,0.00,VWS V14.01,2013-04-04 18:34:00,
2013-04-04 11:36:00,52.0,47.0,29.69,NW,319,0.0,0.0,83,0.11,,---,0.00,VWS V14.01,2013-04-04 18:36:00,
2013-04-04 11:41:00,52.0,47.0,29.69,NW,319,0.0,0.0,83,0.11,,---,0.00,VWS V14.01,2013-04-04 18:41:00,
2013-04-04 11:46:00,52.2,47.5,29.69,NW,319,0.0,0.0,84,0.11,,---,0.00,VWS V14.01,2013-04-04 18:46:00,
2013-04-04 11:52:00,52.2,47.5,29.69,NW,319,0.0,0.0,84,0.11,,---,0.00,VWS V14.01,2013-04-04 18:52:00,
2013-04-04 11:57:00,52.3,47.6,29.69,NW,319,0.0,0.0,84,0.11,,---,0.00,VWS V14.01,2013-04-04 18:57:00,
2013-04-04 12:02:00,52.5,47.8,29.69,NW,319,0.0,0.0,84,0.00,,---,0.00,VWS V14.01,2013-04-04 19:02:00,
2013-04-04 12:07:00,52.5,47.5,29.69,NW,319,0.0,0.0,83,0.00,,---,0.00,VWS V14.01,2013-04-04 19:07:00,
2013-04-04 12:12:00,52.5,47.8,29.69,NW,319,0.0,0.0,84,0.00,,---,0.00,VWS V14.01,2013-04-04 19:12:00,
2013-04-04 12:17:00,52.5,47.8,29.69,NW,319,0.0,0.0,84,0.00,,---,0.00,VWS V14.01,2013-04-04 19:17:00,
2013-04-04 12:22:00,52.5,47.8,29.68,NW,319,0.0,0.0,84,0.00,,---,0.00,VWS V14.01,2013-04-04 19:22:00,
2013-04-04 12:27:00,52.6,47.9,29.68,NW,319,0.0,0.0,84,0.00,,---,0.00,VWS V14.01,2013-04-04 19:27:00,
2013-04-04 12:32:00,52.8,48.1,29.68,NW,319,0.0,0.0,84,0.00,,---,0.00,VWS V14.01,2013-04-04 19:32:00,
2013-04-04 12:37:00,52.8,48.1,29.67,NW,318,0.0,0.0,84,0.00,,---,0.00,VWS V14.01,2013-04-04 19:37:00,
2013-04-04 12:42:00,52.9,48.2,29.67,NW,319,0.0,0.0,84,0.00,,---,0.00,VWS V14.01,2013-04-04 19:42:00,
2013-04-04 12:47:00,53.1,48.4,29.67,NW,319,0.0,0.0,84,0.00,,---,0.00,VWS V14.01,2013-04-04 19:47:00,
2013-04-04 12:52:00,53.3,48.6,29.67,NW,319,0.0,0.0,84,0.00,,---,0.00,VWS V14.01,2013-04-04 19:52:00,
2013-04-04 12:57:00,53.3,48.6,29.67,East,93,0.0,0.0,84,0.00,,---,0.00,VWS V14.01,2013-04-04 19:57:00,
2013-04-04 13:03:00,53.3,48.6,29.68,SE,125,0.0,0.0,84,0.00,,---,0.00,VWS V14.01,2013-04-04 20:03:00,
2013-04-04 13:08:00,53.5,48.8,29.67,SE,124,0.0,0.0,84,0.00,,---,0.00,VWS V14.01,2013-04-04 20:08:00,
2013-04-04 13:13:00,53.5,48.8,29.66,SE,124,0.0,0.0,84,0.00,,---,0.00,VWS V14.01,2013-04-04 20:13:00,
2013-04-04 13:18:00,53.8,49.1,29.66,SE,124,0.0,0.0,84,0.00,,---,0.00,VWS V14.01,2013-04-04 20:18:00,
2013-04-04 13:23:00,53.9,48.9,29.66,ESE,117,0.0,0.0,83,0.00,,---,0.00,VWS V14.01,2013-04-04 20:23:00,
2013-04-04 13:28:00,54.1,49.1,29.66,ESE,117,0.0,0.0,83,0.00,,---,0.00,VWS V14.01,2013-04-04 20:28:00,
2013-04-04 13:33:00,54.1,48.7,29.66,SSE,156,0.0,0.0,82,0.00,,---,0.00,VWS V14.01,2013-04-04 20:33:00,
2013-04-04 13:38:00,54.1,48.7,29.66,SSE,156,0.0,0.0,82,0.00,,---,0.00,VWS V14.01,2013-04-04 20:38:00,
2013-04-04 13:43:00,54.2,48.8,29.66,SSE,156,0.0,0.0,82,0.00,,---,0.00,VWS V14.01,2013-04-04 20:43:00,
2013-04-04 13:48:00,54.5,49.1,29.66,SSE,156,0.0,0.0,82,0.00,,---,0.00,VWS V14.01,2013-04-04 20:48:00,
2013-04-04 13:53:00,54.5,49.1,29.66,SSE,156,0.0,0.0,82,0.00,,---,0.00,VWS V14.01,2013-04-04 20:53:00,
2013-04-04 13:59:00,54.5,49.1,29.66,SSE,157,0.0,0.0,82,0.00,,---,0.00,VWS V14.01,2013-04-04 20:59:00,
2013-04-04 14:04:00,54.5,49.1,29.66,SSW,192,0.0,0.0,82,0.00,,---,0.00,VWS V14.01,2013-04-04 21:04:00,
2013-04-04 14:09:00,54.5,49.1,29.66,SSW,192,0.0,0.0,82,0.00,,---,0.00,VWS V14.01,2013-04-04 21:09:00,
2013-04-04 14:14:00,54.2,48.5,29.66,WSW,246,0.0,0.0,81,0.00,,---,0.00,VWS V14.01,2013-04-04 21:14:00,
2013-04-04 14:19:00,53.8,48.1,29.66,WSW,246,0.0,0.0,81,0.00,,---,0.00,VWS V14.01,2013-04-04 21:19:00,
2013-04-04 14:24:00,53.6,48.2,29.66,WSW,246,0.0,0.0,82,0.00,,---,0.00,VWS V14.01,2013-04-04 21:24:00,
2013-04-04 14:29:00,53.5,48.2,29.65,SW,223,0.0,0.0,82,0.00,,---,0.00,VWS V14.01,2013-04-04 21:29:00,
2013-04-04 14:34:00,53.5,48.2,29.66,SW,223,0.0,0.0,82,0.00,,---,0.00,VWS V14.01,2013-04-04 21:34:00,
2013-04-04 14:40:00,53.3,48.0,29.66,SW,225,0.0,0.0,82,0.00,,---,0.00,VWS V14.01,2013-04-04 21:40:00,
2013-04-04 14:45:00,53.2,48.2,29.66,South,179,0.0,0.0,83,0.00,,---,0.00,VWS V14.01,2013-04-04 21:45:00,
2013-04-04 14:50:00,53.1,48.1,29.66,South,179,0.0,0.0,83,0.00,,---,0.00,VWS V14.01,2013-04-04 21:50:00,
2013-04-04 14:55:00,53.1,48.1,29.66,SW,228,0.0,0.0,83,0.00,,---,0.00,VWS V14.01,2013-04-04 21:55:00,
2013-04-04 15:00:00,52.8,47.8,29.66,West,261,0.0,0.0,83,0.00,,---,0.00,VWS V14.01,2013-04-04 22:00:00,
2013-04-04 15:05:00,52.6,47.6,29.66,WSW,252,0.0,0.0,83,0.00,,---,0.00,VWS V14.01,2013-04-04 22:05:00,
2013-04-04 15:10:00,52.5,47.5,29.66,South,185,0.0,0.0,83,0.00,,---,0.00,VWS V14.01,2013-04-04 22:10:00,
2013-04-04 15:15:00,52.3,47.6,29.66,SW,233,0.0,0.0,84,0.00,,---,0.00,VWS V14.01,2013-04-04 22:15:00,
2013-04-04 15:20:00,52.2,47.5,29.66,SW,227,0.0,0.0,84,0.00,,---,0.00,VWS V14.01,2013-04-04 22:20:00,
2013-04-04 15:25:00,52.2,47.5,29.66,SSE,167,0.0,0.0,84,0.00,,---,0.00,VWS V14.01,2013-04-04 22:25:00,
2013-04-04 15:30:00,52.2,47.5,29.65,SSE,167,0.0,0.0,84,0.00,,---,0.00,VWS V14.01,2013-04-04 22:30:00,
2013-04-04 15:35:00,52.2,47.5,29.65,SSE,167,0.0,0.0,84,0.00,,---,0.00,VWS V14.01,2013-04-04 22:35:00,
2013-04-04 15:40:00,52.2,47.5,29.65,ESE,123,0.0,0.0,84,0.00,,---,0.00,VWS V14.01,2013-04-04 22:40:00,
2013-04-04 15:45:00,52.2,47.5,29.65,ESE,115,0.0,0.0,84,0.00,,---,0.00,VWS V14.01,2013-04-04 22:45:00,
2013-04-04 15:50:00,52.2,47.5,29.64,SE,131,0.0,0.0,84,0.00,,---,0.00,VWS V14.01,2013-04-04 22:50:00,
2013-04-04 15:56:00,52.2,47.8,29.64,South,176,0.0,0.0,85,0.00,,---,0.00,VWS V14.01,2013-04-04 22:56:00,
2013-04-04 16:01:00,52.2,47.8,29.64,South,176,0.0,0.0,85,0.00,,---,0.00,VWS V14.01,2013-04-04 23:01:00,
2013-04-04 16:06:00,52.5,48.1,29.64,ESE,115,0.0,0.0,85,0.00,,---,0.00,VWS V14.01,2013-04-04 23:06:00,
2013-04-04 16:11:00,52.5,48.1,29.64,ESE,115,0.0,0.0,85,0.00,,---,0.00,VWS V14.01,2013-04-04 23:11:00,
2013-04-04 16:16:00,52.6,48.2,29.64,ESE,115,0.0,0.0,85,0.00,,---,0.00,VWS V14.01,2013-04-04 23:16:00,
2013-04-04 16:21:00,52.9,48.5,29.64,ESE,115,0.0,0.0,85,0.00,,---,0.00,VWS V14.01,2013-04-04 23:21:00,
2013-04-04 16:26:00,53.2,48.8,29.63,East,92,0.0,0.0,85,0.00,,---,0.00,VWS V14.01,2013-04-04 23:26:00,
2013-04-04 16:31:00,53.2,48.8,29.63,SE,126,0.0,0.0,85,0.00,,---,0.00,VWS V14.01,2013-04-04 23:31:00,
2013-04-04 16:37:00,53.3,49.2,29.63,SE,127,0.0,0.0,86,0.00,,---,0.00,VWS V14.01,2013-04-04 23:37:00,
2013-04-04 16:42:00,53.3,49.2,29.63,SE,127,0.0,0.0,86,0.00,,---,0.00,VWS V14.01,2013-04-04 23:42:00,
2013-04-04 16:47:00,53.3,48.9,29.63,ESE,117,0.0,0.0,85,0.00,,---,0.00,VWS V14.01,2013-04-04 23:47:00,
2013-04-04 16:52:00,53.3,49.2,29.63,SSE,161,0.0,0.0,86,0.00,,---,0.00,VWS V14.01,2013-04-04 23:52:00,
2013-04-04 16:57:00,53.3,49.2,29.63,SSE,148,0.0,0.0,86,0.00,,---,0.00,VWS V14.01,2013-04-04 23:57:00,
2013-04-04 17:02:00,53.3,49.2,29.62,ESE,105,0.0,0.0,86,0.00,,---,0.00,VWS V14.01,2013-04-05 00:02:00,
2013-04-04 17:07:00,53.3,49.2,29.63,SE,137,0.0,0.0,86,0.00,,---,0.00,VWS V14.01,2013-04-05 00:07:00,
2013-04-04 17:12:00,53.3,49.2,29.63,SE,128,0.0,0.0,86,0.00,,---,0.00,VWS V14.01,2013-04-05 00:12:00,
2013-04-04 17:17:00,53.3,49.2,29.63,SE,145,0.0,0.0,86,0.00,,---,0.00,VWS V14.01,2013-04-05 00:17:00,
2013-04-04 17:22:00,53.3,49.2,29.63,SSE,167,0.0,0.0,86,0.00,,---,0.00,VWS V14.01,2013-04-05 00:22:00,
2013-04-04 17:27:00,53.5,49.4,29.63,ESE,120,0.0,0.0,86,0.00,,---,0.00,VWS V14.01,2013-04-05 00:27:00,
2013-04-04 17:33:00,53.5,49.4,29.63,SE,136,0.0,0.0,86,0.00,,---,0.00,VWS V14.01,2013-04-05 00:33:00,
2013-04-04 17:38:00,53.6,49.5,29.63,SE,134,0.0,0.0,86,0.00,,---,0.00,VWS V14.01,2013-04-05 00:38:00,
2013-04-04 17:43:00,53.8,50.0,29.63,SE,132,0.0,0.0,87,0.00,,---,0.00,VWS V14.01,2013-04-05 00:43:00,
2013-04-04 17:48:00,53.9,50.1,29.63,SSE,161,0.0,0.0,87,0.00,,---,0.00,VWS V14.01,2013-04-05 00:48:00,
2013-04-04 17:53:00,54.1,50.3,29.63,SE,138,0.0,0.0,87,0.00,,---,0.00,VWS V14.01,2013-04-05 00:53:00,
2013-04-04 17:58:00,54.2,50.4,29.64,SSE,167,0.0,0.0,87,0.00,,---,0.00,VWS V14.01,2013-04-05 00:58:00,
2013-04-04 18:03:00,54.4,50.6,29.64,SE,128,0.0,0.0,87,0.00,,---,0.00,VWS V14.01,2013-04-05 01:03:00,
2013-04-04 18:08:00,54.4,50.6,29.64,SSE,164,0.0,0.0,87,0.00,,---,0.00,VWS V14.01,2013-04-05 01:08:00,
2013-04-04 18:13:00,54.4,50.6,29.64,SE,144,0.0,0.0,87,0.00,,---,0.00,VWS V14.01,2013-04-05 01:13:00,
2013-04-04 18:18:00,54.5,50.7,29.64,SE,133,0.0,0.0,87,0.00,,---,0.00,VWS V14.01,2013-04-05 01:18:00,
2013-04-04 18:23:00,54.5,50.7,29.63,SSE,167,0.0,0.0,87,0.00,,---,0.00,VWS V14.01,2013-04-05 01:23:00,
2013-04-04 18:29:00,54.7,50.6,29.64,SE,141,0.0,0.0,86,0.00,,---,0.00,VWS V14.01,2013-04-05 01:29:00,
2013-04-04 18:34:00,54.7,50.6,29.64,SSE,166,0.0,0.0,86,0.00,,---,0.00,VWS V14.01,2013-04-05 01:34:00,
2013-04-04 18:39:00,54.7,50.6,29.64,SSW,200,0.0,0.0,86,0.00,,---,0.00,VWS V14.01,2013-04-05 01:39:00,
2013-04-04 18:44:00,54.7,50.3,29.64,SSW,213,0.0,0.0,85,0.00,,---,0.00,VWS V14.01,2013-04-05 01:44:00,
2013-04-04 18:49:00,54.7,50.3,29.64,ESE,103,0.0,0.0,85,0.00,,---,0.00,VWS V14.01,2013-04-05 01:49:00,
2013-04-04 18:54:00,54.8,50.1,29.64,SE,140,0.0,0.0,84,0.00,,---,0.00,VWS V14.01,2013-04-05 01:54:00,
2013-04-04 18:59:00,54.8,50.1,29.64,South,191,0.0,0.0,84,0.00,,---,0.00,VWS V14.01,2013-04-05 01:59:00,
2013-04-04 19:05:00,55.1,50.0,29.65,South,184,0.0,0.0,83,0.00,,---,0.00,VWS V14.01,2013-04-05 02:05:00,
2013-04-04 19:10:00,55.3,49.6,29.65,SSE,153,0.0,0.0,81,0.00,,---,0.00,VWS V14.01,2013-04-05 02:10:00,
2013-04-04 19:15:00,55.3,49.6,29.65,South,184,0.0,0.0,81,0.00,,---,0.00,VWS V14.01,2013-04-05 02:15:00,
2013-04-04 19:20:00,55.6,49.2,29.65,SW,217,0.0,0.0,79,0.00,,---,0.00,VWS V14.01,2013-04-05 02:20:00,
2013-04-04 19:25:00,55.6,49.2,29.66,SSE,157,0.0,0.0,79,0.00,,---,0.00,VWS V14.01,2013-04-05 02:25:00,
2013-04-04 19:30:00,55.7,49.0,29.66,SSW,209,0.0,0.0,78,0.00,,---,0.00,VWS V14.01,2013-04-05 02:30:00,
2013-04-04 19:35:00,55.9,48.8,29.66,SSW,213,0.0,0.0,77,0.00,,---,0.00,VWS V14.01,2013-04-05 02:35:00,
2013-04-04 19:40:00,55.9,48.8,29.67,SE,130,0.0,0.0,77,0.00,,---,0.00,VWS V14.01,2013-04-05 02:40:00,
2013-04-04 19:46:00,55.9,48.5,29.67,SW,223,0.0,0.0,76,0.00,,---,0.00,VWS V14.01,2013-04-05 02:46:00,
2013-04-04 19:51:00,56.0,48.2,29.66,SSW,197,0.0,0.0,75,0.00,,---,0.00,VWS V14.01,2013-04-05 02:51:00,
2013-04-04 19:56:00,56.0,48.2,29.66,SSE,157,0.0,0.0,75,0.00,,---,0.00,VWS V14.01,2013-04-05 02:56:00,
2013-04-04 20:01:00,56.0,47.8,29.67,South,169,0.0,0.0,74,0.00,,---,0.00,VWS V14.01,2013-04-05 03:01:00,
2013-04-04 20:06:00,56.0,47.8,29.67,SSW,203,0.0,0.0,74,0.00,,---,0.00,VWS V14.01,2013-04-05 03:06:00,
2013-04-04 20:11:00,56.0,47.8,29.67,SSW,207,0.0,0.0,74,0.00,,---,0.00,VWS V14.01,2013-04-05 03:11:00,
2013-04-04 20:17:00,55.9,48.1,29.67,ESE,122,0.0,0.0,75,0.00,,---,0.00,VWS V14.01,2013-04-05 03:17:00,
2013-04-04 20:22:00,55.9,48.1,29.67,South,182,0.0,0.0,75,0.00,,---,0.00,VWS V14.01,2013-04-05 03:22:00,
2013-04-04 20:27:00,55.7,47.9,29.67,South,169,0.0,0.0,75,0.00,,---,0.00,VWS V14.01,2013-04-05 03:27:00,
2013-04-04 20:32:00,55.7,47.9,29.67,South,186,0.0,0.0,75,0.00,,---,0.00,VWS V14.01,2013-04-05 03:32:00,
2013-04-04 20:37:00,55.6,47.8,29.68,South,169,0.0,0.0,75,0.00,,---,0.00,VWS V14.01,2013-04-05 03:37:00,
2013-04-04 20:42:00,55.6,47.8,29.68,South,188,0.0,0.0,75,0.00,,---,0.00,VWS V14.01,2013-04-05 03:42:00,
2013-04-04 20:47:00,55.6,47.5,29.68,SSE,163,0.0,0.0,74,0.00,,---,0.00,VWS V14.01,2013-04-05 03:47:00,
2013-04-04 20:52:00,55.6,47.5,29.68,South,169,0.0,0.0,74,0.00,,---,0.00,VWS V14.01,2013-04-05 03:52:00,
2013-04-04 20:57:00,55.7,47.9,29.68,South,175,0.0,0.0,75,0.00,,---,0.00,VWS V14.01,2013-04-05 03:57:00,
2013-04-04 21:00:00,55.7,47.9,29.68,SSE,157,0.0,0.0,75,0.00,,---,0.00,VWS V14.01,2013-04-05 04:00:00,
2013-04-04 21:01:00,55.7,47.9,29.68,SE,144,0.0,0.0,75,0.00,,---,0.00,VWS V14.01,2013-04-05 04:01:00,
2013-04-04 21:06:00,55.7,47.9,29.69,SSE,160,0.0,0.0,75,0.00,,---,0.00,VWS V14.01,2013-04-05 04:06:00,
2013-04-04 21:11:00,55.7,47.9,29.68,SE,130,0.0,0.0,75,0.00,,---,0.00,VWS V14.01,2013-04-05 04:11:00,
2013-04-04 21:17:00,55.7,47.9,29.69,SSE,154,0.0,0.0,75,0.00,,---,0.00,VWS V14.01,2013-04-05 04:17:00,
2013-04-04 21:22:00,55.7,47.5,29.69,SSW,213,0.0,0.0,74,0.00,,---,0.00,VWS V14.01,2013-04-05 04:22:00,
2013-04-04 21:27:00,55.7,47.2,29.69,South,175,0.0,0.0,73,0.00,,---,0.00,VWS V14.01,2013-04-05 04:27:00,
2013-04-04 21:32:00,55.9,47.0,29.69,SSW,209,0.0,0.0,72,0.00,,---,0.00,VWS V14.01,2013-04-05 04:32:00,
2013-04-04 21:37:00,55.9,47.0,29.70,South,185,0.0,0.0,72,0.00,,---,0.00,VWS V14.01,2013-04-05 04:37:00,
2013-04-04 21:42:00,55.7,46.8,29.69,SSE,153,0.0,0.0,72,0.00,,---,0.00,VWS V14.01,2013-04-05 04:42:00,
2013-04-04 21:47:00,55.7,46.8,29.69,ESE,120,0.0,0.0,72,0.00,,---,0.00,VWS V14.01,2013-04-05 04:47:00,
2013-04-04 21:52:00,55.7,46.8,29.69,South,180,0.0,0.0,72,0.00,,---,0.00,VWS V14.01,2013-04-05 04:52:00,
2013-04-04 21:57:00,55.4,46.9,29.69,WNW,287,0.0,0.0,73,0.00,,---,0.00,VWS V14.01,2013-04-05 04:57:00,
2013-04-04 22:02:00,55.3,46.8,29.69,SSW,207,0.0,0.0,73,0.00,,---,0.00,VWS V14.01,2013-04-05 05:02:00,
2013-04-04 22:07:00,55.1,47.3,29.69,SSE,159,0.0,0.0,75,0.00,,---,0.00,VWS V14.01,2013-04-05 05:07:00,
2013-04-04 22:12:00,55.0,47.2,29.70,ESE,123,0.0,0.0,75,0.00,,---,0.00,VWS V14.01,2013-04-05 05:12:00,
2013-04-04 22:17:00,54.8,47.0,29.69,South,175,0.0,0.0,75,0.00,,---,0.00,VWS V14.01,2013-04-05 05:17:00,
2013-04-04 22:22:00,54.7,47.3,29.69,SW,222,0.0,0.0,76,0.00,,---,0.00,VWS V14.01,2013-04-05 05:22:00,
2013-04-04 22:27:00,54.4,47.3,29.69,SW,222,0.0,0.0,77,0.00,,---,0.00,VWS V14.01,2013-04-05 05:27:00,
2013-04-04 22:32:00,54.1,47.1,29.69,SW,219,0.0,0.0,77,0.00,,---,0.00,VWS V14.01,2013-04-05 05:32:00,
2013-04-04 22:38:00,54.1,47.4,29.70,SSW,208,0.0,0.0,78,0.00,,---,0.00,VWS V14.01,2013-04-05 05:38:00,
2013-04-04 22:43:00,53.9,47.5,29.70,South,185,0.0,0.0,79,0.00,,---,0.00,VWS V14.01,2013-04-05 05:43:00,
2013-04-04 22:48:00,53.8,47.5,29.69,SW,221,0.0,0.0,79,0.00,,---,0.00,VWS V14.01,2013-04-05 05:48:00,
2013-04-04 22:53:00,53.6,47.6,29.69,SE,127,0.0,0.0,80,0.00,,---,0.00,VWS V14.01,2013-04-05 05:53:00,
2013-04-04 22:58:00,53.6,47.6,29.70,SSW,207,0.0,0.0,80,0.00,,---,0.00,VWS V14.01,2013-04-05 05:58:00,
2013-04-04 23:03:00,53.5,47.5,29.70,South,178,0.0,0.0,80,0.00,,---,0.00,VWS V14.01,2013-04-05 06:03:00,
2013-04-04 23:08:00,53.5,47.8,29.70,ESE,118,0.0,0.0,81,0.00,,---,0.00,VWS V14.01,2013-04-05 06:08:00,
2013-04-04 23:13:00,53.5,47.8,29.70,SE,129,0.0,0.0,81,0.00,,---,0.00,VWS V14.01,2013-04-05 06:13:00,
2013-04-04 23:18:00,53.5,47.8,29.70,SSW,198,0.0,0.0,81,0.00,,---,0.00,VWS V14.01,2013-04-05 06:18:00,
2013-04-04 23:23:00,53.5,47.8,29.70,SSW,201,0.0,0.0,81,0.00,,---,0.00,VWS V14.01,2013-04-05 06:23:00,
2013-04-04 23:28:00,53.6,47.6,29.70,South,169,0.0,0.0,80,0.00,,---,0.00,VWS V14.01,2013-04-05 06:28:00,
2013-04-04 23:33:00,53.6,47.6,29.70,SE,142,0.0,0.0,80,0.00,,---,0.00,VWS V14.01,2013-04-05 06:33:00,
2013-04-04 23:38:00,53.8,47.8,29.70,SSW,192,0.0,0.0,80,0.00,,---,0.00,VWS V14.01,2013-04-05 06:38:00,
2013-04-04 23:43:00,53.9,47.5,29.70,South,188,0.0,0.0,79,0.00,,---,0.00,VWS V14.01,2013-04-05 06:43:00,
2013-04-04 23:48:00,53.9,47.5,29.70,SSE,157,0.0,0.0,79,0.00,,---,0.00,VWS V14.01,2013-04-05 06:48:00,
2013-04-04 23:54:00,54.1,47.7,29.70,SSE,155,0.0,0.0,79,0.00,,---,0.00,VWS V14.01,2013-04-05 06:54:00,
2013-04-04 23:59:00,54.1,47.4,29.70,SE,127,0.0,0.0,78,0.00,,---,0.00,VWS V14.01,2013-04-05 06:59:00,